Flag for Germany Weather past 2 weeks in Lingen (Ems), Lower Saxony, Germany

Now
50 °F

Passing clouds.


Feels Like: 48 °F
Forecast: 46 / 64 °F
Wind: 5 mph from Southwest

Location: Meppen

Current Time: Aug 20, 2014 at 8:57:56 AM

Latest Report: Aug 20, 2014 at 8:00 AM


Visibility: 22 mi

Pressure: 29.93 "Hg

Humidity: 89%

Dew point: 47 °F

Location of Lingen (Ems)Location

Historic Weather in Lingen (Ems) — Graph

°F

Lingen (Ems) temperature yesterday

Maximum temperature yesterday: 61 °F (at 1:00 PM)
Minimum temperature yesterday: 50 °F (at 6:00 AM)
Average temperature yesterday: 54 °F

Past Weeks' High & Low Weather Summary

 TemperatureHumidityPressure
High77 °F (Aug 10, 3:00 PM)95% (Aug 8, 6:00 AM)30.11 "Hg (Aug 8, 6:00 AM)
Low48 °F (Aug 20, 6:00 AM)31% (Aug 5, 4:00 PM)29.53 "Hg (Aug 10, 9:00 PM)
Average61 °F76%29.83 "Hg
* Reported Aug 5 7:00 AM — Aug 20 7:00 AM, Lingen (Ems), Weather by CustomWeather, © 2014

Note: Actual official high and low records may vary slightly from our data, if they occured in-between our weather recording intervals... More about our weather records

Advertising

Lingen (Ems) weather history for previous 24 hours

 ConditionsComfort  
Time TempWeatherWind HumidityBarometerVisibility
7:00 AM
Aug 20
48 °FScattered clouds.3 mph92%29.92 "Hg19 mi
6:00 AM48 °FCool.3 mph93%29.91 "Hg5 mi
4:00 AM49 °FCool.5 mph92%29.90 "Hg5 mi
3:00 AM49 °FCool.5 mph91%29.89 "Hg5 mi
2:00 AM50 °FCool.5 mph90%29.88 "Hg6 mi
1:00 AM51 °FCool.6 mph89%29.88 "Hg6 mi
12:00 AM51 °FCool.5 mph88%29.87 "Hg4 mi
10:00 PM
Aug 19
51 °FCool.5 mph89%29.85 "Hg6 mi
9:00 PM53 °FCool.3 mph82%29.84 "Hg6 mi
7:00 PM56 °FCool.6 mph74%29.80 "Hg6 mi
6:00 PM56 °FCool.5 mph76%29.79 "Hg6 mi
5:00 PMN/APassing clouds.6 mphN/AN/A14 mi
4:00 PM56 °FCool.5 mph84%29.77 "Hg6 mi
3:00 PM55 °FPartly sunny.3 mph85%29.76 "Hg11 mi
1:00 PM61 °FOvercast.7 mph69%29.74 "Hg14 mi
12:00 PM57 °FOvercast.5 mph78%29.76 "Hg14 mi
10:00 AM54 °FOvercast.3 mph86%29.75 "Hg11 mi
9:00 AM53 °FOvercast.3 mph89%29.75 "Hg11 mi
8:00 AM52 °FOvercast.3 mph90%29.77 "Hg9 mi
Weather by CustomWeather, © 2014

See weather overviewHow to use our weather pages